Elefsis, Greece

2:57 AM EEST on September 22, 2017 (GMT +0300)
Elefsis Air Base

Weather History for LGEL - May, 2013

Change the Weather History Date:

Sunday, May 26, 2013

  Actual Average Record
Temperature  
Mean Temperature 72 °F -  
Max Temperature 84 °F 84 °F 89 °F (2006)
Min Temperature 59 °F 66 °F 55 °F (1999)
Cooling Degree Days 6    
Growing Degree Days 22 (Base 50)    
Moisture  
Dew Point 46 °F    
Average Humidity 37    
Maximum Humidity 67    
Minimum Humidity 23    
Precipitation  
Precipitation 0.00 in - - ()
Sea Level Pressure  
Sea Level Pressure 29.90 in    
Wind  
Wind Speed 5 mph ()    
Max Wind Speed 12 mph    
Max Gust Speed -    
Visibility 6.2 miles    
Events      
Averages and records for this station are not official NWS values.
T = Trace of Precipitation, MM = Missing Value Source: Averaged Metar Reports

Daily Weather History Graph

Daily Weather History Graph

Search for Another Location

Airport or City:

Trip Planner

Search our weather history database for the weather conditions in past years. The results will help you decide how hot, cold, wet, or windy it might be!

Date:

Astronomy

May. 26, 2013 Rise Set
Actual Time 6:07 AM EEST 8:38 PM EEST
Civil Twilight 5:37 AM EEST 9:09 PM EEST
Nautical Twilight 4:59 AM EEST 9:46 PM EEST
Astronomical Twilight 4:17 AM EEST 10:29 PM EEST
Moon 10:08 PM EEST (5/26) 7:16 AM EEST (5/26)
Length of Visible Light 15h 32m
Length of Day
14h 31m
Full, 98% of the Moon is Illuminated
May 26
Full
May 31
Last Quarter
Jun 8
New
Jun 16
First Quarter
Jun 23
Full

Hourly Weather History & Observations

Time (EEST) Temp. Dew Point Humidity Pressure Visibility Wind Dir Wind Speed Gust Speed Precip Events Conditions
12:50 AM 68.0 °F 51.8 °F 56% 29.95 in - NNW 5.8 mph - N/A   Clear
1:50 AM 68.0 °F 50.0 °F 52% 29.95 in - NNW 5.8 mph - N/A   Clear
2:50 AM 66.2 °F 50.0 °F 56% 29.95 in - NNW 4.6 mph - N/A   Clear
4:50 AM 60.8 °F 48.2 °F 63% 29.92 in - Calm Calm - N/A   Clear
5:50 AM 60.8 °F 48.2 °F 63% 29.92 in - Calm Calm - N/A   Clear
6:20 AM 59.0 °F 48.2 °F 67% 29.92 in - Calm Calm - N/A   Clear
6:50 AM 60.8 °F 48.2 °F 63% 29.95 in - Calm Calm - N/A   Clear
7:50 AM 68.0 °F 48.2 °F 49% 29.95 in - Calm Calm - N/A   Clear
8:20 AM 71.6 °F 46.4 °F 41% 29.95 in - Calm Calm - N/A   Clear
8:50 AM 73.4 °F 46.4 °F 38% 29.95 in - Calm Calm - N/A   Clear
9:20 AM 73.4 °F 44.6 °F 36% 29.92 in - ESE 3.5 mph - N/A   Clear
9:50 AM 77.0 °F 41.0 °F 28% 29.92 in - South 6.9 mph - N/A   Clear
10:20 AM 77.0 °F 39.2 °F 26% 29.92 in - South 8.1 mph - N/A   Clear
10:50 AM 78.8 °F 41.0 °F 26% 29.92 in 6.2 mi South 9.2 mph - N/A   Partly Cloudy
11:20 AM 80.6 °F 39.2 °F 23% 29.92 in 6.2 mi South 6.9 mph - N/A   Scattered Clouds
11:50 AM 80.6 °F 41.0 °F 24% 29.92 in 6.2 mi South 5.8 mph - N/A   Scattered Clouds
12:20 PM 82.4 °F 41.0 °F 23% 29.92 in 6.2 mi South 9.2 mph - N/A   Scattered Clouds
12:50 PM 80.6 °F 42.8 °F 26% 29.92 in 6.2 mi South 9.2 mph - N/A   Scattered Clouds
1:20 PM 82.4 °F 42.8 °F 25% 29.92 in 6.2 mi South 6.9 mph - N/A   Scattered Clouds
1:50 PM 82.4 °F 42.8 °F 25% 29.92 in 6.2 mi South 8.1 mph - N/A   Partly Cloudy
2:20 PM 82.4 °F 42.8 °F 25% 29.92 in 6.2 mi South 10.4 mph - N/A   Partly Cloudy
2:50 PM 82.4 °F 48.2 °F 30% 29.89 in 6.2 mi South 8.1 mph - N/A   Partly Cloudy
3:20 PM 82.4 °F 46.4 °F 28% 29.89 in - South 6.9 mph - N/A   Clear
3:50 PM 82.4 °F 44.6 °F 26% 29.89 in - South 5.8 mph - N/A   Clear
4:20 PM 84.2 °F 46.4 °F 27% 29.86 in 6.2 mi South 6.9 mph - N/A   Partly Cloudy
4:50 PM 84.2 °F 48.2 °F 29% 29.86 in 6.2 mi SSW 6.9 mph - N/A   Partly Cloudy
5:20 PM 84.2 °F 48.2 °F 29% 29.86 in 6.2 mi SSW 11.5 mph - N/A   Partly Cloudy
5:50 PM 84.2 °F 46.4 °F 27% 29.83 in 6.2 mi SW 8.1 mph - N/A   Partly Cloudy
6:20 PM 84.2 °F 42.8 °F 23% 29.86 in 6.2 mi WSW 11.5 mph - N/A   Partly Cloudy
6:50 PM 82.4 °F 42.8 °F 25% 29.86 in - WNW 10.4 mph - N/A   Clear
7:20 PM 80.6 °F 44.6 °F 28% 29.86 in 6.2 mi West 10.4 mph - N/A   Partly Cloudy
7:50 PM 78.8 °F 46.4 °F 32% 29.86 in - West 8.1 mph - N/A   Clear
8:20 PM 77.0 °F 46.4 °F 34% 29.86 in - West 9.2 mph - N/A   Clear
8:50 PM 75.2 °F 46.4 °F 36% 29.86 in - WNW 11.5 mph - N/A   Clear
9:20 PM 73.4 °F 48.2 °F 41% 29.86 in - WNW 9.2 mph - N/A   Clear
9:50 PM 73.4 °F 48.2 °F 41% 29.89 in - West 9.2 mph - N/A   Clear
10:20 PM 71.6 °F 48.2 °F 43% 29.89 in - West 9.2 mph - N/A   Clear
10:50 PM 71.6 °F 50.0 °F 46% 29.92 in - West 6.9 mph - N/A   Clear
11:20 PM 69.8 °F 48.2 °F 46% 29.92 in - West 10.4 mph - N/A   Clear
11:50 PM 69.8 °F 46.4 °F 43% 29.92 in - WSW 10.4 mph - N/A   Clear